Regional Weather Roundup
Issued by NWS Wakefield, VA

Home | Current Version | Previous Version | Text Only | Print | Product List | Glossary On
Versions: 1 2 3 4 5 6 7 8 9 10 11 12 13 14 15 16 17 18 19 20 21 22 23 24 25 26 27 28 29 30 31 32 33 34 35 36 37 38 39 40 41 42 43 44 45 46 47 48 49 50
624
ASUS41 KAKQ 191115
RWRAKQ

REGIONAL WEATHER ROUNDUP
NATIONAL WEATHER SERVICE WAKEFIELD VA
600 AM EST THU JAN 19 2017

Note: "fair" indicates few or no clouds below 12,000 feet with no
significant weather and/or obstructions to visibility. * = Denotes
station may not report precipitation (e.g., rain,snow,etc.),
thunder or fog.

VAZ042-051-052>054-056-191200-
NORTHERN VIRGINIA

CITY           SKY/WX    TMP DP  RH WIND       PRES   REMARKS
WASH NATIONAL  MOCLDY    43  36  76 N8        30.08S
DULLES         CLOUDY    44  34  67 NW6       30.08R
FORT BELVOIR   PTCLDY    41  34  76 NW6       30.08R
QUANTICO       CLOUDY    37  35  92 NW6       30.10R
FREDERICKSBRG* CLOUDY    35  35 100 CALM      30.08S
STAFFORD*      CLOUDY    31  31 100 CALM      30.12S
WARRENTON      CLOUDY    31  28  90 CALM      30.08R
CULPEPER*      CLOUDY    30  30  99 CALM      30.09S
MANASSAS*      NOT AVBL
LEESBURG*      CLOUDY    45  39  81 CALM      30.08S
WINCHESTER     CLOUDY    41  34  75 NW6       30.07R
FRONT ROYAL*   CLOUDY    36  34  93 S3        30.06S
LURAY*         FAIR      32  32 100 S5        30.08R
$$

VAZ048-049-060>072-079>083-191200-
CENTRAL AND SOUTH CENTRAL VIRGINIA

CITY           SKY/WX    TMP DP  RH WIND       PRES   REMARKS
RICHMOND       CLOUDY    39  35  86 N5        30.08R
CHESTERFIELD*  FAIR      36  19  51 CALM      30.11R
PETERSBURG*    PTCLDY    32  30  93 CALM      30.10R
HANOVER        CLOUDY    37  33  85 CALM      30.10R
TAPPAHANNOCK*  CLOUDY    35  35 100 CALM      30.08F
QUINTON*       FAIR      39  36  86 CALM      30.08S
CHARLOTTSVILLE CLOUDY    35  32  88 S3        30.07R
GORDONSVILLE*  FAIR      29  29 100 CALM      30.08R
ORANGE*          N/A     32  32 100 CALM      30.10R
LOUISA*        CLOUDY    34  34 100 CALM      30.07R
BUMPASS*       FAIR      33  33 100 CALM      30.08R
FARMVILLE*     PTCLDY    33  33 100 CALM      30.09R
CREWE*         FAIR      33  33 100 CALM      30.09S
FORT PICKETT*  FAIR      37  33  87 MISG      30.09S
CHASE CITY*    FAIR      35  33  94 CALM      30.09S
CLARKSVILLE*   FAIR      37  37 100 CALM      30.08S
SOUTH HILL*    CLOUDY    35  34  97 CALM      30.14S
LAWRENCEVILLE* FAIR      35  33  94 CALM      30.09S
EMPORIA*       PTCLDY    34  32  93 CALM      30.12R
$$

VAZ088>098-191200-
SOUTHEAST VIRGINIA

CITY           SKY/WX    TMP DP  RH WIND       PRES   REMARKS
NORFOLK        CLOUDY    43  37  79 N7        30.07R
VIRGINIA BEACH MOCLDY    38  36  92 N6        30.07R
NORFOLK NAVAL  CLOUDY    41  36  82 N5        30.09R
WEST POINT*    CLOUDY    31  30  96 CALM      30.10S
SALUDA*        FAIR      37  36  96 CALM      30.08S
NEWPORT NEWS   CLOUDY    40  35  83 N6        30.08R
LANGLEY AFB    CLOUDY    41  36  81 N6        30.07R
FORT EUSTIS    PTCLDY    42  35  76 CALM      30.05R
WILLIAMSBURG*  CLOUDY    39  36  87 CALM      30.09R
HR EXEC AP*    FAIR      32  28  86 CALM      30.07R
FRANKLIN*      CLOUDY    37  35  90 CALM      30.10R
US460-WAKEFLD  CLOUDY    36  35  96 CALM      30.09R
$$

VAZ020-022-025-037-045-191200-
WEST CENTRAL AND SOUTHWEST VIRGINIA

CITY           SKY/WX    TMP DP  RH WIND       PRES   REMARKS
STAUNTON*      CLOUDY    28  27  96 CALM      30.09R
WAYNESBORO*    FAIR      37  34  88 NW3       30.07R
HOT SPRINGS VA FOG       34  34 100 W7        30.01R VSB 1/4
LYNCHBURG      CLOUDY    33  31  92 CALM      30.09R
DANVILLE       CLOUDY    32  32 100 NE3       30.09R
SOUTH BOSTON*  FAIR      35  33  95 CALM      30.10R
MARTINSVILLE   CLOUDY    29  28  95 CALM      30.10R
ROANOKE        CLOUDY    40  35  83 N6        30.10R
BLACKSBURG     CLOUDY    36  35  96 W3        30.10S
DUBLIN*        CLOUDY    34  33  98 CALM      30.08F
MARION*        CLOUDY    38  37  96 CALM      30.09R
HILLSVILLE*    CLOUDY    40  36  83 CALM      30.04S
RICHLANDS*     FAIR     N/A N/A N/A N3        30.07R
WISE*          CLOUDY    41  39  93 W7        30.08R
ABINGDON*      PTCLDY    40  38  96 CALM      30.08S
$$

MDZ021>025-VAZ099-100-191200-
SOUTHERN MARYLAND AND THE DELMARVA PENINSULA

CITY           SKY/WX    TMP DP  RH WIND       PRES   REMARKS
PATUXENT RIVER CLOUDY    40  36  86 W6        30.08R
BAY BRIDGE APT CLOUDY    43  36  75 N3        30.07S
LEONARDTOWN    CLOUDY    37  34  87 CALM      30.09S
DOVER          NOT AVBL
GEORGETOWN     CLOUDY    46  39  76 CALM      30.06S
EASTON         CLOUDY    45  36  70 N3        30.11R
CAMBRIDGE      CLOUDY    43  36  75 CALM      30.07S
SALISBURY      CLOUDY    45  38  76 NW7       30.06S
OCEAN CITY     CLOUDY    43  41  93 CALM      30.06S
WALLOPS ISLAND CLOUDY    42  40  92 NW3       30.07R
ACCOMACK*      CLOUDY    40  38  91 NW3       30.07R
$$

NCZ012>017-030>032-191200-
NORTH CENTRAL AND EASTERN NORTH CAROLINA

CITY           SKY/WX    TMP DP  RH WIND       PRES   REMARKS
ROANOKE RAPIDS FAIR      37  36  93 CALM      30.09S
RALEIGH        PTCLDY    36  33  89 CALM      30.07S
ELIZABETH CITY PTCLDY    43  40  89 N8        30.07R
AHOSKIE*         N/A     37  36  96 CALM      30.10S
EDENTON*       PTCLDY    41  38  89 N6        30.08R
CURRITUCK*     PTCLDY    41  41  97 N3        30.08R
KILL DEVIL HLS NOT AVBL
MANTEO         PTCLDY    43  43 100 N6        30.07R
CAPE HATTERAS  CLEAR     48  44  86 N6        30.04R
TARBORO*       NOT AVBL
GOLDSBORO      CLEAR     36  36 100 CALM      30.06S
WASHINGTON     CLEAR     38  37  99 CALM        N/A
GREENVILLE     CLEAR     37  37 100 CALM      30.10S FOG
NEW BERN       FOG       38  38 100 CALM      30.10R VSB 3/4
WILMINGTON     CLEAR     40  40 100 NE3       30.07R
$$

VAZ048-191200-
ELSEWHERE

CITY           SKY/WX    TMP DP  RH WIND       PRES   REMARKS
HARRISBURG PA  CLOUDY    41  36  82 NW3       30.05S
BALTIMORE      CLOUDY    44  36  73 NW6       30.07S
ANNAPOLIS      CLOUDY    45  36  70 NW3       30.06S
ANDREWS AFB    MOCLDY    40  34  79 NW7       30.06S
PHILADELPHIA   CLOUDY    45  36  70 NW5       30.06S
HENDERSON NC   CLEAR     32  31  96 CALM      30.08S
GREENSBORO     CLOUDY    39  36  89 NE3       30.06R
ROCKY MOUNT    CLEAR     37  37 100 CALM      30.08F
$$

VAZ100-191200-
MARINE

STATION/POSITION TIME  TEMP    WIND        PRES    WAVE   SWELL
                       AIR SEA DIR/SP/G            HT/PER HT/PER
                 (UTC) (F)     (DEG/KT/KT) (MB)    (FT/S) (FT/S)
CAPE MAY NJ      1048   41 41  340/  1/  3 1017.6R
LEWES DE         1048   44 42  300/  5/  6 1017.8R
OCEAN-CITY-INLET 1048   43 43   30/  2/  4 1018.1F
WACHAPREAGUE VA  1048   40 47   CALM  /  1 1018.2R
THOMAS POINT MD  1100   45 39  350/  5/  6   N/A
GOOSES REEF MD   1100   42      10/  6/  6 1018.9    0
COVE POINT MD    1048   42     360/  8/  9 1019.0R
SOLOMONS ISLAND  1048   42 41  280/  3/  4   N/A
BISHOPS HEAD MD  1048   43 45  340/  4/  6 1018.5R
PINEY POINT MD   1048          340/  6/  6   N/A
POTOMAC MD       1100   41 41  280/  2/  4 1017.6    0
CAMBRIDGE MD     1048   45 40  300/  5/  6 1017.6R
LEWISETTA VA     1048   42 43  330/  5/  6 1018.3R
RAPPAHANNOCK LGT 1048          330/  6/  7 1019.0R
STINGRAY PT      1050   42     330/  6/  8 1018.8R
YORK RVR RNG VA  1048   43     360/  8/ 10 1017.7R
YORKTOWN VA      1048   42 44  320/  5/  6 1018.2R
JAMESTOWN VA     1100   42 45  340/  4/  6   N/A     0
DOMINION TERM VA 1048   43     360/  5/  7 1018.5R
KIPTOPEKE VA     1048      43  360/  7/  8   N/A
CHES BAY BRIDGE  1048   43 45  360/  9/ 11 1018.1R
CAPE HENRY VA    1048   43     350/  9/ 11   N/A
WILLOUBY STN VA  1048   44     360/  9/ 10 1019.3R
S CRANEY ISL VA  1048   42     330/  4/  5 1018.2R
CAPE HENRY BUOY  1042      48                N/A     3/ 7
OFFSHORE WE BUOY 1051      49                N/A     4/ 7
64NM E OF VA BCH 1050   50 57   10/ 19/ 21 1017.0R   6/ 7   3/ 7
DUCK PIER NC     1048   45 45  350/  8/  9 1017.5R
44100 DUCK FRF   1035      47                N/A     4/ 8
44056 DUCK FRF   1030      45                N/A     4/ 8
OREGON INLET NC  1042   43 50  340/  5/  6 1017.8R
HATTERAS NC      1048   48 55   10/ 14/ 16 1016.8R
DIAMOND SHLS NC  1050   53 75   20/ 19/ 23 1016.3F   6/11   3/11
CAPE LOOKOUT NC  1100   47     350/  7/  9 1017.5R
$$




USA.gov is the U.S. government's official web portal to all federal, state and local government web resources and services.